N831B KEMT-KONT

Flight info

Callsign N831B
Flight time 0h 29m
Altitude 4000
Route PDZ
Aircraft C172/L-VGD/A

Departure

Time 2026-04-21 02:17
Airport San Gabriel Valley Airport (KEMT)

Arrival

Time 2026-04-21 02:47
Airport Ontario International Airport (KONT)
Time Latitude Longitude Altitude Speed Heading
2026-04-21 02:02 34.08557 -118.03448 287 ft 0 kts 31°
2026-04-21 02:13 34.08558 -118.03446 287 ft 2 kts 31°
2026-04-21 02:14 34.08658 -118.03389 288 ft 28 kts 23°
2026-04-21 02:14 34.08897 -118.03255 292 ft 43 kts 26°
2026-04-21 02:14 34.09058 -118.03162 296 ft 0 kts 22°
2026-04-21 02:15 34.09060 -118.03162 296 ft 0 kts 10°
2026-04-21 02:16 34.09079 -118.03180 295 ft 10 kts 306°
2026-04-21 02:16 34.09049 -118.03225 294 ft 25 kts 204°
2026-04-21 02:16 34.08704 -118.03426 288 ft 79 kts 205°
2026-04-21 02:17 34.08229 -118.03778 515 ft 81 kts 222°
2026-04-21 02:17 34.07800 -118.04205 783 ft 77 kts 220°
2026-04-21 02:17 34.07385 -118.04657 985 ft 82 kts 223°
2026-04-21 02:17 34.06966 -118.05087 1232 ft 81 kts 215°
2026-04-21 02:18 34.06512 -118.05507 1448 ft 82 kts 224°
2026-04-21 02:18 34.06112 -118.05970 1683 ft 81 kts 221°
2026-04-21 02:18 34.05661 -118.06397 1915 ft 80 kts 217°
2026-04-21 02:18 34.05226 -118.06830 2113 ft 84 kts 220°
2026-04-21 02:19 34.04790 -118.07262 2346 ft 81 kts 218°
2026-04-21 02:19 34.04334 -118.07695 2549 ft 83 kts 216°
2026-04-21 02:19 34.03793 -118.07653 2747 ft 82 kts 139°
2026-04-21 02:19 34.03628 -118.07059 2932 ft 84 kts 99°
2026-04-21 02:20 34.03534 -118.06360 3142 ft 83 kts 98°
2026-04-21 02:20 34.03458 -118.05670 3329 ft 84 kts 99°
2026-04-21 02:20 34.03368 -118.04983 3546 ft 82 kts 98°
2026-04-21 02:20 34.03280 -118.04293 3716 ft 85 kts 98°
2026-04-21 02:21 34.03207 -118.03603 3925 ft 83 kts 96°
2026-04-21 02:21 34.03109 -118.02895 4099 ft 85 kts 98°
2026-04-21 02:21 34.03006 -118.02176 4228 ft 92 kts 99°
2026-04-21 02:21 34.02905 -118.01326 4218 ft 110 kts 97°
2026-04-21 02:22 34.02813 -118.00393 4269 ft 116 kts 99°
2026-04-21 02:22 34.02684 -117.99406 4204 ft 126 kts 98°
2026-04-21 02:22 34.02541 -117.98355 4211 ft 125 kts 100°
2026-04-21 02:22 34.02362 -117.97333 4264 ft 123 kts 104°
2026-04-21 02:23 34.02188 -117.96310 4245 ft 126 kts 101°
2026-04-21 02:23 34.02020 -117.95287 4286 ft 123 kts 101°
2026-04-21 02:23 34.01867 -117.94269 4289 ft 125 kts 101°
2026-04-21 02:23 34.01675 -117.93240 4305 ft 124 kts 104°
2026-04-21 02:24 34.01442 -117.92236 4324 ft 124 kts 105°
2026-04-21 02:24 34.01224 -117.91214 4301 ft 127 kts 104°
2026-04-21 02:24 34.00991 -117.90211 4353 ft 123 kts 105°
2026-04-21 02:24 34.00755 -117.89210 4357 ft 125 kts 106°
2026-04-21 02:25 34.00457 -117.88226 4357 ft 125 kts 113°
2026-04-21 02:25 34.00090 -117.87277 4387 ft 124 kts 116°
2026-04-21 02:25 33.99713 -117.86321 4377 ft 126 kts 111°
2026-04-21 02:25 33.99509 -117.85301 4376 ft 126 kts 100°
2026-04-21 02:26 33.99348 -117.84269 4416 ft 124 kts 102°
2026-04-21 02:26 33.99124 -117.83259 4413 ft 125 kts 107°
2026-04-21 02:26 33.98866 -117.82268 4432 ft 124 kts 106°
2026-04-21 02:26 33.98696 -117.81219 4412 ft 126 kts 101°
2026-04-21 02:27 33.98497 -117.80211 4460 ft 123 kts 104°
2026-04-21 02:27 33.98268 -117.79204 4452 ft 125 kts 106°
2026-04-21 02:27 33.97984 -117.78207 4469 ft 125 kts 111°
2026-04-21 02:27 33.97628 -117.77261 4482 ft 125 kts 114°
2026-04-21 02:28 33.97355 -117.76257 4479 ft 126 kts 104°
2026-04-21 02:28 33.97135 -117.75240 4478 ft 126 kts 105°
2026-04-21 02:28 33.96898 -117.74217 4479 ft 126 kts 105°
2026-04-21 02:28 33.96657 -117.73220 4510 ft 125 kts 106°
2026-04-21 02:29 33.96409 -117.72188 4456 ft 129 kts 106°
2026-04-21 02:29 33.96139 -117.71165 4476 ft 127 kts 109°
2026-04-21 02:29 33.95865 -117.70143 4408 ft 131 kts 106°
2026-04-21 02:29 33.95613 -117.69085 4408 ft 129 kts 105°
2026-04-21 02:30 33.95352 -117.68047 4396 ft 129 kts 108°
2026-04-21 02:30 33.95060 -117.67014 4364 ft 130 kts 109°
2026-04-21 02:30 33.94725 -117.66014 4359 ft 129 kts 114°
2026-04-21 02:30 33.94426 -117.64990 4334 ft 130 kts 104°
2026-04-21 02:31 33.94310 -117.63909 4302 ft 130 kts 94°
2026-04-21 02:31 33.94228 -117.62837 4312 ft 129 kts 98°
2026-04-21 02:31 33.93999 -117.61777 4276 ft 130 kts 107°
2026-04-21 02:31 33.93668 -117.60765 4272 ft 129 kts 113°
2026-04-21 02:32 33.93363 -117.59753 4253 ft 129 kts 105°
2026-04-21 02:32 33.93219 -117.58697 4289 ft 126 kts 97°
2026-04-21 02:32 33.93041 -117.57662 4282 ft 127 kts 105°
2026-04-21 02:32 33.92748 -117.56641 4263 ft 128 kts 108°
2026-04-21 02:33 33.92479 -117.55643 4304 ft 125 kts 105°
2026-04-21 02:33 33.92251 -117.54615 4279 ft 128 kts 105°
2026-04-21 02:33 33.91985 -117.53595 4300 ft 126 kts 109°
2026-04-21 02:33 33.91691 -117.52595 4295 ft 127 kts 103°
2026-04-21 02:34 33.91678 -117.51513 4244 ft 130 kts 85°
2026-04-21 02:34 33.91756 -117.50456 4315 ft 124 kts 86°
2026-04-21 02:34 33.91860 -117.49418 4271 ft 129 kts 70°
2026-04-21 02:34 33.92368 -117.48492 4234 ft 130 kts 57°
2026-04-21 02:35 33.92853 -117.47620 4321 ft 126 kts 56°
2026-04-21 02:35 33.93330 -117.46710 4307 ft 129 kts 58°
2026-04-21 02:35 33.93777 -117.45774 4310 ft 130 kts 58°
2026-04-21 02:35 33.94238 -117.44844 4322 ft 129 kts 59°
2026-04-21 02:36 33.94686 -117.43893 4334 ft 129 kts 61°
2026-04-21 02:36 33.95111 -117.42932 4331 ft 130 kts 57°
2026-04-21 02:36 33.95615 -117.42027 4344 ft 130 kts 55°
2026-04-21 02:36 33.96122 -117.41132 4366 ft 129 kts 56°
2026-04-21 02:37 33.96574 -117.40203 4358 ft 130 kts 62°
2026-04-21 02:37 33.97041 -117.39269 4361 ft 130 kts 51°
2026-04-21 02:37 33.97553 -117.38364 4376 ft 130 kts 57°
2026-04-21 02:37 33.98011 -117.37434 4392 ft 129 kts 60°
2026-04-21 02:38 33.98450 -117.36475 4388 ft 130 kts 57°
2026-04-21 02:38 33.98970 -117.35586 4406 ft 129 kts 53°
2026-04-21 02:38 33.99492 -117.34697 4415 ft 130 kts 55°
2026-04-21 02:38 33.99986 -117.33788 4420 ft 130 kts 58°
2026-04-21 02:39 34.00450 -117.32868 4433 ft 129 kts 58°
2026-04-21 02:39 34.01015 -117.32014 4379 ft 133 kts 27°
2026-04-21 02:39 34.01856 -117.32079 4518 ft 122 kts 328°
2026-04-21 02:39 34.02362 -117.32930 4440 ft 129 kts 287°
2026-04-21 02:40 34.02748 -117.33885 4446 ft 131 kts 296°
2026-04-21 02:40 34.03148 -117.34888 4471 ft 126 kts 296°
2026-04-21 02:40 34.03542 -117.35841 4454 ft 130 kts 298°
2026-04-21 02:40 34.03963 -117.36810 4448 ft 130 kts 297°
2026-04-21 02:41 34.04369 -117.37781 4413 ft 134 kts 297°
2026-04-21 02:41 34.04787 -117.38786 4446 ft 130 kts 294°
2026-04-21 02:41 34.04996 -117.39883 4323 ft 137 kts 269°
2026-04-21 02:41 34.05135 -117.40995 4169 ft 144 kts 292°
2026-04-21 02:42 34.05335 -117.42156 4034 ft 145 kts 265°
2026-04-21 02:42 34.05429 -117.43321 3788 ft 140 kts 277°
2026-04-21 02:42 34.05468 -117.44507 3383 ft 141 kts 271°
2026-04-21 02:42 34.05410 -117.45629 3211 ft 129 kts 262°
2026-04-21 02:43 34.05437 -117.46706 2858 ft 136 kts 282°
2026-04-21 02:43 34.05644 -117.47778 2633 ft 130 kts 274°
2026-04-21 02:43 34.05592 -117.48850 2511 ft 118 kts 263°
2026-04-21 02:43 34.05412 -117.49806 2274 ft 117 kts 270°
2026-04-21 02:44 34.05492 -117.50723 2154 ft 110 kts 282°
2026-04-21 02:44 34.05577 -117.51551 2140 ft 88 kts 270°
2026-04-21 02:44 34.05494 -117.52293 1970 ft 90 kts 263°
2026-04-21 02:44 34.05464 -117.53026 1839 ft 90 kts 275°
2026-04-21 02:45 34.05537 -117.53777 1708 ft 88 kts 276°
2026-04-21 02:45 34.05500 -117.54515 1572 ft 88 kts 263°
2026-04-21 02:45 34.05516 -117.55236 1459 ft 87 kts 271°
2026-04-21 02:45 34.05480 -117.55969 1318 ft 89 kts 268°
2026-04-21 02:46 34.05499 -117.56655 1215 ft 74 kts 274°
2026-04-21 02:46 34.05492 -117.57246 1115 ft 70 kts 269°
2026-04-21 02:46 34.05497 -117.57815 1050 ft 69 kts 271°
2026-04-21 02:46 34.05496 -117.58388 942 ft 63 kts 270°
2026-04-21 02:47 34.05491 -117.58814 919 ft 42 kts 268°
2026-04-21 02:47 34.05493 -117.59121 919 ft 29 kts 274°
2026-04-21 02:47 34.05476 -117.59315 918 ft 19 kts 243°
2026-04-21 02:47 34.05395 -117.59386 915 ft 10 kts 133°
2026-04-21 02:48 34.05387 -117.59364 915 ft 0 kts 103°